Saga Sapphire — 9HOF8 — position and weather

sailwx.info

Track history (hours):
 
Tides and Currents Weather Stations Pressure Air Temp Water Temp Dewpoint Dewpoint Depression Visibility Wind Speed Wind Dir Waves Ship Positions

Saga Sapphire

Last reported at 2016-Aug-27 02:32 UTC. Time now 2016-Aug-27 02:53 UTC.
Position N 55°59' W 004°56'.

Length 200 m; draft 8.6 m.

Type: Ship. MMSI: 256208000.

Date/timePositionNaut miles runAvg speedWind from/ knotsBaromVisibWave heightAir tempDewpointWater temp
2016-Aug-27 02:32N 55°59' W 004°56'0 0.0
2016-Aug-27 01:32N 55°59' W 004°56'0 0.0
2016-Aug-27 00:32N 55°59' W 004°56'0 0.0
2016-Aug-26 23:32N 55°59' W 004°56'0 0.0
2016-Aug-26 22:32N 55°59' W 004°56'0 0.0
2016-Aug-26 21:32N 55°59' W 004°56'0 0.0
2016-Aug-26 20:32N 55°59' W 004°56'0 0.0
2016-Aug-26 19:32N 55°59' W 004°56'0 0.0
2016-Aug-26 18:32N 55°59' W 004°56'0 0.0
2016-Aug-26 17:26N 55°59' W 004°56'0 0.0
2016-Aug-26 16:32N 55°59' W 004°56'0 0.0
2016-Aug-26 15:32N 55°59' W 004°56'0 0.0
2016-Aug-26 14:32N 55°59' W 004°56'0 0.0
2016-Aug-26 13:32N 55°59' W 004°56'0 0.0
2016-Aug-26 12:32N 55°59' W 004°56'0 0.0
2016-Aug-26 11:32N 55°59' W 004°56'0 0.0
2016-Aug-26 10:32N 55°59' W 004°56'0 0.0
2016-Aug-26 09:32N 55°59' W 004°56'0 0.0
2016-Aug-26 08:32N 55°59' W 004°56'0 0.0
2016-Aug-26 07:32N 55°59' W 004°56'0 0.0
2016-Aug-26 06:33N 55°59' W 004°56'22 9.6
2016-Aug-26 04:14N 55°37' W 004°60'19 9.9
2016-Aug-26 02:22N 55°19' W 005°10'810.4
2016-Aug-26 01:33N 55°14' W 005°21'1010.2
2016-Aug-26 00:31N 55°06' W 005°34'10 7.1
2016-Aug-25 23:08N 55°14' W 005°46'5 9.1
2016-Aug-25 22:34N 55°14' W 005°55'8 8.3
2016-Aug-25 21:33N 55°20' W 006°06'7 7.3
2016-Aug-25 20:33N 55°23' W 006°18'7 6.9
2016-Aug-25 19:33N 55°29' W 006°19'10 9.6
2016-Aug-25 18:33N 55°31' W 006°02'6 6.3
2016-Aug-25 17:33N 55°36' W 005°56'9 8.9
2016-Aug-25 16:30N 55°46' W 005°59'30 8.8
2016-Aug-25 13:09N 56°15' W 005°49'6 9.4
2016-Aug-25 12:30N 56°19' W 005°42'10 8.9
2016-Aug-25 11:25N 56°29' W 005°40'338 7.8
2016-Aug-23 16:19N 51°35' W 010°23'1216.3
2016-Aug-23 15:34N 51°28' W 010°07'1717.2
2016-Aug-23 14:34N 51°22' W 009°41'1716.7
2016-Aug-23 13:34N 51°25' W 009°15'1717.5
2016-Aug-23 12:34N 51°31' W 008°48'1717.4
2016-Aug-23 11:34N 51°37' W 008°22'1212.1
2016-Aug-23 10:34N 51°49' W 008°16'2 2.0
2016-Aug-23 09:29N 51°51' W 008°18'0 0.0
2016-Aug-23 08:23N 51°51' W 008°18'0 0.0
2016-Aug-23 07:32N 51°51' W 008°18'0 0.0
2016-Aug-23 06:32N 51°51' W 008°18'0 0.0
2016-Aug-23 05:29N 51°51' W 008°18'0 0.0
2016-Aug-23 04:32N 51°51' W 008°18'0 0.0
2016-Aug-23 03:32N 51°51' W 008°18'0 0.0
2016-Aug-23 02:32N 51°51' W 008°18'0 0.0
2016-Aug-23 01:32N 51°51' W 008°18'0 0.0
2016-Aug-23 00:32N 51°51' W 008°18'0 0.0
2016-Aug-22 23:32N 51°51' W 008°18'0 0.0
2016-Aug-22 22:32N 51°51' W 008°18'0 0.0
2016-Aug-22 21:32N 51°51' W 008°18'0 0.0
2016-Aug-22 20:32N 51°51' W 008°18'0 0.0
2016-Aug-22 19:32N 51°51' W 008°18'0 0.0
2016-Aug-22 18:32N 51°51' W 008°18'0 0.0
2016-Aug-22 17:32N 51°51' W 008°18'0 0.0
2016-Aug-22 16:32N 51°51' W 008°18'0 0.0
2016-Aug-22 15:33N 51°51' W 008°18'1 0.1
2016-Aug-22 03:05N 51°50' W 008°20'0 0.0
2016-Aug-21 18:26N 51°50' W 008°20'0 0.0
2016-Aug-21 17:32N 51°50' W 008°20'0 0.0
2016-Aug-21 16:32N 51°50' W 008°20'2 2.5
2016-Aug-21 15:34N 51°51' W 008°16'10 9.6
2016-Aug-21 14:33N 51°42' W 008°10'1211.9
2016-Aug-21 13:33N 51°33' W 007°57'9915.4
2016-Aug-21 07:08N 50°26' W 006°02'914.3
2016-Aug-21 06:32N 50°18' W 005°55'2713.3
2016-Aug-21 04:30N 49°55' W 005°34'1614.6
2016-Aug-21 03:26N 49°52' W 005°10'1314.3
2016-Aug-21 02:31N 49°52' W 004°50'1415.1
2016-Aug-21 01:34N 49°53' W 004°28'1615.5
2016-Aug-21 00:33N 49°59' W 004°05'1515.1
2016-Aug-20 23:33N 50°03' W 003°43'1413.7
2016-Aug-20 22:33N 50°08' W 003°23'1111.1
2016-Aug-20 21:33N 50°12' W 003°06'1010.1
2016-Aug-20 20:33N 50°16' W 002°52'10 9.9
2016-Aug-20 19:33N 50°20' W 002°38'1010.4
2016-Aug-20 18:33N 50°25' W 002°24'10 9.7
2016-Aug-20 17:33N 50°35' W 002°22'3 0.9
2016-Aug-20 14:33N 50°34' W 002°26'0 0.0
2016-Aug-20 13:33N 50°34' W 002°26'0 0.0
2016-Aug-20 12:33N 50°34' W 002°26'0 0.0
2016-Aug-20 11:33N 50°34' W 002°26'0 0.0
2016-Aug-20 10:33N 50°34' W 002°26'0 0.0
2016-Aug-20 09:33N 50°34' W 002°26'0 0.0
2016-Aug-20 08:33N 50°34' W 002°26'0 0.0
2016-Aug-20 07:33N 50°34' W 002°26'0 0.0
2016-Aug-20 06:33N 50°34' W 002°26'0 0.0
2016-Aug-20 05:27N 50°34' W 002°26'0 0.0
2016-Aug-20 04:33N 50°34' W 002°26'0 0.0
2016-Aug-20 03:27N 50°34' W 002°26'0 0.0
2016-Aug-20 02:33N 50°34' W 002°26'0 0.0
2016-Aug-20 01:33N 50°34' W 002°26'0 0.0
2016-Aug-20 00:27N 50°34' W 002°26'0 0.0
2016-Aug-19 23:15N 50°34' W 002°26'0 0.0
2016-Aug-19 22:33N 50°34' W 002°26'0 0.0
2016-Aug-19 21:33N 50°34' W 002°26'0 0.0
2016-Aug-19 20:33N 50°34' W 002°26'0 0.0
2016-Aug-19 19:33N 50°34' W 002°26'3 3.4
2016-Aug-19 18:33N 50°35' W 002°21'1413.4
2016-Aug-19 17:31N 50°32' W 001°59'1111.5
2016-Aug-19 16:33N 50°42' W 001°51'0 0.1
2016-Aug-19 15:28N 50°42' W 001°51'0 0.0
2016-Aug-19 14:28N 50°42' W 001°51'0 0.0
2016-Aug-19 13:28N 50°42' W 001°51'0 0.1
2016-Aug-19 12:28N 50°42' W 001°51'0 0.0
2016-Aug-19 11:31N 50°42' W 001°51'0 0.0
2016-Aug-19 10:31N 50°42' W 001°51'0 0.0
2016-Aug-19 09:33N 50°42' W 001°51'6 6.2
2016-Aug-19 08:33N 50°36' W 001°47'21 6.9
2016-Aug-19 05:33N 50°23' W 001°22'7 7.4
2016-Aug-19 04:33N 50°29' W 001°14'1010.4
2016-Aug-19 03:33N 50°30' W 000°58'1110.9
2016-Aug-19 02:33N 50°30' W 000°41'1110.7
2016-Aug-19 01:33N 50°31' W 000°24'1010.1
2016-Aug-19 00:33N 50°32' W 000°08'9 8.9
2016-Aug-18 23:33N 50°34' E 000°05'8 7.9
2016-Aug-18 22:33N 50°36' E 000°17'7 6.8
2016-Aug-18 21:32N 50°38' E 000°28'17 7.6
2016-Aug-18 19:17N 50°46' E 000°51'710.0
2016-Aug-18 18:33N 50°50' E 001°00'1110.8
2016-Aug-18 17:33N 50°57' E 001°14'1111.1
2016-Aug-18 16:33N 51°04' E 001°27'5 4.9
2016-Aug-18 15:33N 51°07' E 001°20'1 0.1
2016-Aug-18 08:29N 51°07' E 001°19'0 0.0
2016-Aug-18 07:23N 51°07' E 001°19'0 0.0
2016-Aug-18 06:33N 51°07' E 001°19'5 4.9
2016-Aug-18 05:34N 51°07' E 001°27'1413.5
2016-Aug-18 04:33N 51°14' E 001°45'1414.2
2016-Aug-18 03:33N 51°27' E 001°55'1313.1
2016-Aug-18 02:33N 51°37' E 002°08'1312.8
2016-Aug-18 01:33N 51°46' E 002°23'1212.3
2016-Aug-18 00:33N 51°57' E 002°33'1313.2
2016-Aug-17 23:33N 52°10' E 002°37'1413.8
2016-Aug-17 22:33N 52°22' E 002°45'1413.6
2016-Aug-17 21:34N 52°34' E 002°57'1514.9
2016-Aug-17 20:33N 52°47' E 003°09'1515.0
2016-Aug-17 19:33N 53°01' E 003°19'1514.6
2016-Aug-17 18:34N 53°15' E 003°26'1413.7
2016-Aug-17 17:34N 53°28' E 003°32'1413.2
2016-Aug-17 16:31N 53°41' E 003°38'1513.3
2016-Aug-17 15:21N 53°51' E 003°58'1113.8
2016-Aug-17 14:33N 53°58' E 004°13'1413.8
2016-Aug-17 13:33N 54°08' E 004°29'1914.0
2016-Aug-17 12:11N 54°25' E 004°45'2813.9
2016-Aug-17 10:12N 54°48' E 005°10'3713.7
2016-Aug-17 07:32N 55°20' E 005°41'1413.6
2016-Aug-17 06:31N 55°32' E 005°55'1413.8
2016-Aug-17 05:31N 55°44' E 006°07'1313.7
2016-Aug-17 04:33N 55°55' E 006°20'1413.8
2016-Aug-17 03:33N 56°06' E 006°32'1413.8
2016-Aug-17 02:33N 56°18' E 006°45'  
Track history (hours):
 
Tides and Currents Weather Stations Pressure Air Temp Water Temp Dewpoint Dewpoint Depression Visibility Wind Speed Wind Dir Waves Ship Positions

Saga Sapphire

Last reported at 2016-Aug-27 02:32 UTC. Time now 2016-Aug-27 02:53 UTC.
Position N 55°59' W 004°56'.

Length 200 m; draft 8.6 m.

Type: Ship. MMSI: 256208000.

Date/timePositionNaut miles runAvg speedWind from/ knotsBaromVisibWave heightAir tempDewpointWater temp
2016-Aug-27 02:32N 55°59' W 004°56'0 0.0
2016-Aug-27 01:32N 55°59' W 004°56'0 0.0
2016-Aug-27 00:32N 55°59' W 004°56'0 0.0
2016-Aug-26 23:32N 55°59' W 004°56'0 0.0
2016-Aug-26 22:32N 55°59' W 004°56'0 0.0
2016-Aug-26 21:32N 55°59' W 004°56'0 0.0
2016-Aug-26 20:32N 55°59' W 004°56'0 0.0
2016-Aug-26 19:32N 55°59' W 004°56'0 0.0
2016-Aug-26 18:32N 55°59' W 004°56'0 0.0
2016-Aug-26 17:26N 55°59' W 004°56'0 0.0
2016-Aug-26 16:32N 55°59' W 004°56'0 0.0
2016-Aug-26 15:32N 55°59' W 004°56'0 0.0
2016-Aug-26 14:32N 55°59' W 004°56'0 0.0
2016-Aug-26 13:32N 55°59' W 004°56'0 0.0
2016-Aug-26 12:32N 55°59' W 004°56'0 0.0
2016-Aug-26 11:32N 55°59' W 004°56'0 0.0
2016-Aug-26 10:32N 55°59' W 004°56'0 0.0
2016-Aug-26 09:32N 55°59' W 004°56'0 0.0
2016-Aug-26 08:32N 55°59' W 004°56'0 0.0
2016-Aug-26 07:32N 55°59' W 004°56'0 0.0
2016-Aug-26 06:33N 55°59' W 004°56'22 9.6
2016-Aug-26 04:14N 55°37' W 004°60'19 9.9
2016-Aug-26 02:22N 55°19' W 005°10'810.4
2016-Aug-26 01:33N 55°14' W 005°21'1010.2
2016-Aug-26 00:31N 55°06' W 005°34'10 7.1
2016-Aug-25 23:08N 55°14' W 005°46'5 9.1
2016-Aug-25 22:34N 55°14' W 005°55'8 8.3
2016-Aug-25 21:33N 55°20' W 006°06'7 7.3
2016-Aug-25 20:33N 55°23' W 006°18'7 6.9
2016-Aug-25 19:33N 55°29' W 006°19'10 9.6
2016-Aug-25 18:33N 55°31' W 006°02'6 6.3
2016-Aug-25 17:33N 55°36' W 005°56'9 8.9
2016-Aug-25 16:30N 55°46' W 005°59'30 8.8
2016-Aug-25 13:09N 56°15' W 005°49'6 9.4
2016-Aug-25 12:30N 56°19' W 005°42'10 8.9
2016-Aug-25 11:25N 56°29' W 005°40'338 7.8
2016-Aug-23 16:19N 51°35' W 010°23'1216.3
2016-Aug-23 15:34N 51°28' W 010°07'1717.2
2016-Aug-23 14:34N 51°22' W 009°41'1716.7
2016-Aug-23 13:34N 51°25' W 009°15'1717.5
2016-Aug-23 12:34N 51°31' W 008°48'1717.4
2016-Aug-23 11:34N 51°37' W 008°22'1212.1
2016-Aug-23 10:34N 51°49' W 008°16'2 2.0
2016-Aug-23 09:29N 51°51' W 008°18'0 0.0
2016-Aug-23 08:23N 51°51' W 008°18'0 0.0
2016-Aug-23 07:32N 51°51' W 008°18'0 0.0
2016-Aug-23 06:32N 51°51' W 008°18'0 0.0
2016-Aug-23 05:29N 51°51' W 008°18'0 0.0
2016-Aug-23 04:32N 51°51' W 008°18'0 0.0
2016-Aug-23 03:32N 51°51' W 008°18'0 0.0
2016-Aug-23 02:32N 51°51' W 008°18'0 0.0
2016-Aug-23 01:32N 51°51' W 008°18'0 0.0
2016-Aug-23 00:32N 51°51' W 008°18'0 0.0
2016-Aug-22 23:32N 51°51' W 008°18'0 0.0
2016-Aug-22 22:32N 51°51' W 008°18'0 0.0
2016-Aug-22 21:32N 51°51' W 008°18'0 0.0
2016-Aug-22 20:32N 51°51' W 008°18'0 0.0
2016-Aug-22 19:32N 51°51' W 008°18'0 0.0
2016-Aug-22 18:32N 51°51' W 008°18'0 0.0
2016-Aug-22 17:32N 51°51' W 008°18'0 0.0
2016-Aug-22 16:32N 51°51' W 008°18'0 0.0
2016-Aug-22 15:33N 51°51' W 008°18'1 0.1
2016-Aug-22 03:05N 51°50' W 008°20'0 0.0
2016-Aug-21 18:26N 51°50' W 008°20'0 0.0
2016-Aug-21 17:32N 51°50' W 008°20'0 0.0
2016-Aug-21 16:32N 51°50' W 008°20'2 2.5
2016-Aug-21 15:34N 51°51' W 008°16'10 9.6
2016-Aug-21 14:33N 51°42' W 008°10'1211.9
2016-Aug-21 13:33N 51°33' W 007°57'9915.4
2016-Aug-21 07:08N 50°26' W 006°02'914.3
2016-Aug-21 06:32N 50°18' W 005°55'2713.3
2016-Aug-21 04:30N 49°55' W 005°34'1614.6
2016-Aug-21 03:26N 49°52' W 005°10'1314.3
2016-Aug-21 02:31N 49°52' W 004°50'1415.1
2016-Aug-21 01:34N 49°53' W 004°28'1615.5
2016-Aug-21 00:33N 49°59' W 004°05'1515.1
2016-Aug-20 23:33N 50°03' W 003°43'1413.7
2016-Aug-20 22:33N 50°08' W 003°23'1111.1
2016-Aug-20 21:33N 50°12' W 003°06'1010.1
2016-Aug-20 20:33N 50°16' W 002°52'10 9.9
2016-Aug-20 19:33N 50°20' W 002°38'1010.4
2016-Aug-20 18:33N 50°25' W 002°24'10 9.7
2016-Aug-20 17:33N 50°35' W 002°22'3 0.9
2016-Aug-20 14:33N 50°34' W 002°26'0 0.0
2016-Aug-20 13:33N 50°34' W 002°26'0 0.0
2016-Aug-20 12:33N 50°34' W 002°26'0 0.0
2016-Aug-20 11:33N 50°34' W 002°26'0 0.0
2016-Aug-20 10:33N 50°34' W 002°26'0 0.0
2016-Aug-20 09:33N 50°34' W 002°26'0 0.0
2016-Aug-20 08:33N 50°34' W 002°26'0 0.0
2016-Aug-20 07:33N 50°34' W 002°26'0 0.0
2016-Aug-20 06:33N 50°34' W 002°26'0 0.0
2016-Aug-20 05:27N 50°34' W 002°26'0 0.0
2016-Aug-20 04:33N 50°34' W 002°26'0 0.0
2016-Aug-20 03:27N 50°34' W 002°26'0 0.0
2016-Aug-20 02:33N 50°34' W 002°26'0 0.0
2016-Aug-20 01:33N 50°34' W 002°26'0 0.0
2016-Aug-20 00:27N 50°34' W 002°26'0 0.0
2016-Aug-19 23:15N 50°34' W 002°26'0 0.0
2016-Aug-19 22:33N 50°34' W 002°26'0 0.0
2016-Aug-19 21:33N 50°34' W 002°26'0 0.0
2016-Aug-19 20:33N 50°34' W 002°26'0 0.0
2016-Aug-19 19:33N 50°34' W 002°26'3 3.4
2016-Aug-19 18:33N 50°35' W 002°21'1413.4
2016-Aug-19 17:31N 50°32' W 001°59'1111.5
2016-Aug-19 16:33N 50°42' W 001°51'0 0.1
2016-Aug-19 15:28N 50°42' W 001°51'0 0.0
2016-Aug-19 14:28N 50°42' W 001°51'0 0.0
2016-Aug-19 13:28N 50°42' W 001°51'0 0.1
2016-Aug-19 12:28N 50°42' W 001°51'0 0.0
2016-Aug-19 11:31N 50°42' W 001°51'0 0.0
2016-Aug-19 10:31N 50°42' W 001°51'0 0.0
2016-Aug-19 09:33N 50°42' W 001°51'6 6.2
2016-Aug-19 08:33N 50°36' W 001°47'21 6.9
2016-Aug-19 05:33N 50°23' W 001°22'7 7.4
2016-Aug-19 04:33N 50°29' W 001°14'1010.4
2016-Aug-19 03:33N 50°30' W 000°58'1110.9
2016-Aug-19 02:33N 50°30' W 000°41'1110.7
2016-Aug-19 01:33N 50°31' W 000°24'1010.1
2016-Aug-19 00:33N 50°32' W 000°08'9 8.9
2016-Aug-18 23:33N 50°34' E 000°05'8 7.9
2016-Aug-18 22:33N 50°36' E 000°17'7 6.8
2016-Aug-18 21:32N 50°38' E 000°28'17 7.6
2016-Aug-18 19:17N 50°46' E 000°51'710.0
2016-Aug-18 18:33N 50°50' E 001°00'1110.8
2016-Aug-18 17:33N 50°57' E 001°14'1111.1
2016-Aug-18 16:33N 51°04' E 001°27'5 4.9
2016-Aug-18 15:33N 51°07' E 001°20'1 0.1
2016-Aug-18 08:29N 51°07' E 001°19'0 0.0
2016-Aug-18 07:23N 51°07' E 001°19'0 0.0
2016-Aug-18 06:33N 51°07' E 001°19'5 4.9
2016-Aug-18 05:34N 51°07' E 001°27'1413.5
2016-Aug-18 04:33N 51°14' E 001°45'1414.2
2016-Aug-18 03:33N 51°27' E 001°55'1313.1
2016-Aug-18 02:33N 51°37' E 002°08'1312.8
2016-Aug-18 01:33N 51°46' E 002°23'1212.3
2016-Aug-18 00:33N 51°57' E 002°33'1313.2
2016-Aug-17 23:33N 52°10' E 002°37'1413.8
2016-Aug-17 22:33N 52°22' E 002°45'1413.6
2016-Aug-17 21:34N 52°34' E 002°57'1514.9
2016-Aug-17 20:33N 52°47' E 003°09'1515.0
2016-Aug-17 19:33N 53°01' E 003°19'1514.6
2016-Aug-17 18:34N 53°15' E 003°26'1413.7
2016-Aug-17 17:34N 53°28' E 003°32'1413.2
2016-Aug-17 16:31N 53°41' E 003°38'1513.3
2016-Aug-17 15:21N 53°51' E 003°58'1113.8
2016-Aug-17 14:33N 53°58' E 004°13'1413.8
2016-Aug-17 13:33N 54°08' E 004°29'1914.0
2016-Aug-17 12:11N 54°25' E 004°45'2813.9
2016-Aug-17 10:12N 54°48' E 005°10'3713.7
2016-Aug-17 07:32N 55°20' E 005°41'1413.6
2016-Aug-17 06:31N 55°32' E 005°55'1413.8
2016-Aug-17 05:31N 55°44' E 006°07'1313.7
2016-Aug-17 04:33N 55°55' E 006°20'1413.8
2016-Aug-17 03:33N 56°06' E 006°32'1413.8
2016-Aug-17 02:33N 56°18' E 006°45'  

Dump ship's entire track history